Weather History for Laramie, WY

Change the Weather History Date:

Sunday, September 8, 2013

  Actual Average Record
Temperature  
Mean Temperature 64 °F 56 °F  
Max Temperature 80 °F 72 °F 85 °F (1979)
Min Temperature 47 °F 41 °F 24 °F (1962)
Degree Days  
Heating Degree Days 1 9  
Month to date heating degree days 1 60  
Since 1 July heating degree days 72 232  
Cooling Degree Days 0 0  
Month to date cooling degree days 24 0  
Year to date cooling degree days 162 66  
Growing Degree Days 14 (Base 50)    
Moisture  
Dew Point 49 °F    
Average Humidity 57    
Maximum Humidity 86    
Minimum Humidity 28    
Precipitation  
Precipitation 0.09 in 0.04 in 1.02 in (1989)
Month to date precipitation 0.55 0.30  
Year to date precipitation 6.88 8.45  
Sea Level Pressure  
Sea Level Pressure 29.91 in    
Wind  
Wind Speed 7 mph (South)    
Max Wind Speed 29 mph    
Max Gust Speed 36 mph    
Visibility 9 miles    
Events Rain , Thunderstorm    
T = Trace of Precipitation, MM = Missing Value Source: NWS Daily Summary

Daily Weather History Graph

Daily Weather History Graph

Search for Another Location

Airport:

Trip Planner

Search our weather history database for the weather conditions in past years. The results will help you decide how hot, cold, wet, or windy it might be!

Date:

Astronomy

Sep. 08, 2013 Rise Set
Actual Time 6:36 AM MDT 7:23 PM MDT
Civil Twilight 6:08 AM MDT 7:51 PM MDT
Nautical Twilight 5:35 AM MDT 8:24 PM MDT
Astronomical Twilight 5:00 AM MDT 8:58 PM MDT
Moon 9:59 AM MDT (9/8) 8:57 PM MDT (9/8)
Length of Visible Light 13h 42m
Length of Day
12h 46m
Waxing Crescent, 11% of the Moon is Illuminated
Sep 8
Waxing Crescent
Sep 12
First Quarter
Sep 19
Full
Sep 26
Last Quarter
Oct 4
New

Hourly Weather History & Observations

Time (MDT) Temp. Dew Point Humidity Pressure Visibility Wind Dir Wind Speed Gust Speed Precip Events Conditions
12:53 AM 62.1 °F 46.9 °F 58% 29.86 in 10.0 mi SSW 15.0 mph - N/A   Partly Cloudy
1:53 AM 57.9 °F 46.9 °F 67% 29.87 in 10.0 mi SSE 5.8 mph - N/A   Clear
2:53 AM 55.9 °F 46.9 °F 72% 29.90 in 10.0 mi West 5.8 mph - N/A   Clear
3:53 AM 55.9 °F 46.0 °F 69% 29.92 in 10.0 mi East 4.6 mph - N/A   Clear
4:53 AM 51.1 °F 45.0 °F 80% 29.97 in 10.0 mi SE 5.8 mph - N/A   Clear
5:53 AM 50.0 °F 45.0 °F 83% 29.96 in 10.0 mi South 5.8 mph - N/A   Clear
6:53 AM 48.0 °F 45.0 °F 89% 29.98 in 10.0 mi South 6.9 mph - N/A   Clear
7:53 AM 52.0 °F 46.9 °F 83% 29.97 in 10.0 mi WSW 5.8 mph - N/A   Clear
8:53 AM 61.0 °F 48.9 °F 64% 29.94 in 10.0 mi SW 3.5 mph - N/A   Clear
9:53 AM 66.0 °F 48.9 °F 54% 29.91 in 10.0 mi SE 3.5 mph - N/A   Partly Cloudy
10:53 AM 69.1 °F 48.9 °F 49% 29.88 in 10.0 mi Calm Calm - N/A   Clear
11:53 AM 72.0 °F 46.9 °F 41% 29.85 in 10.0 mi WSW 4.6 mph - N/A   Clear
12:53 PM 75.9 °F 46.0 °F 35% 29.81 in 10.0 mi West 4.6 mph - N/A   Clear
1:53 PM 80.1 °F 44.1 °F 28% 29.78 in 10.0 mi SSE 9.2 mph - N/A   Clear
2:53 PM 77.0 °F 43.0 °F 30% 29.78 in 10.0 mi SE 5.8 mph - N/A   Mostly Cloudy
3:53 PM 66.0 °F 51.1 °F 59% 29.83 in 10.0 mi SE 18.4 mph 28.8 mph 0.02 in Thunderstorm Mostly Cloudy
4:02 PM 66.2 °F 48.2 °F 52% 30.13 in 10.0 mi SSE 20.7 mph 25.3 mph N/A   Mostly Cloudy
4:20 PM 66.2 °F 50.0 °F 56% 30.13 in 10.0 mi SSE 16.1 mph - 0.00 in Rain , Thunderstorm Light Rain
4:35 PM 62.6 °F 51.8 °F 68% 30.14 in 2.5 mi SSE 16.1 mph - 0.02 in Rain Rain
4:44 PM 62.6 °F 53.6 °F 72% 30.14 in 7.0 mi Variable 3.5 mph - 0.02 in Rain Light Rain
4:53 PM 64.0 °F 54.0 °F 70% 29.87 in 10.0 mi West 9.2 mph - 0.02 in   Overcast
5:53 PM 64.0 °F 52.0 °F 65% 29.86 in 10.0 mi NE 9.2 mph - N/A   Scattered Clouds
6:53 PM 62.1 °F 52.0 °F 70% 29.86 in 10.0 mi East 3.5 mph - N/A   Clear
7:53 PM 60.1 °F 53.1 °F 78% 29.86 in 10.0 mi Calm Calm - N/A   Mostly Cloudy
8:53 PM 60.1 °F 52.0 °F 75% 29.84 in 10.0 mi NW 18.4 mph 23.0 mph 0.00 in Rain Light Rain
9:53 PM 59.0 °F 53.1 °F 81% 29.83 in 10.0 mi WNW 11.5 mph - 0.00 in Rain Light Rain
10:53 PM 57.0 °F 54.0 °F 89% 29.85 in 10.0 mi SSW 9.2 mph - 0.01 in Rain Light Rain
11:53 PM 57.0 °F 54.0 °F 89% 29.82 in 5.0 mi Calm Calm - 0.02 in Rain Light Rain